This is the latest recevied weather packets stored in our database for station/object 4S6DRJ-13. If no packets are shown the sender has not sent any weather packets the latest 10 day(s).
| Time | Temp. | Humidity | Pressure | Rain* | Wind** | Luminosity | Snow |
|---|---|---|---|---|---|---|---|
| 1788356048 | 27.78° C | 85% | 1009.1 hPa | 0 mm | 0 m/s | 0 W/m² | - |
| 1788355989 | 27.78° C | 85% | 1009.3 hPa | 0 mm | 0.45 m/s, 252° | 0 W/m² | - |
| 1788355926 | 27.78° C | 85% | 1009.2 hPa | 0 mm | 0 m/s | 0 W/m² | - |
| 1788355865 | 27.78° C | 85% | 1009.3 hPa | 0 mm | 0 m/s | 0 W/m² | - |
| 1788355804 | 27.78° C | 85% | 1009.4 hPa | 0 mm | 0 m/s | 0 W/m² | - |
| 1788355743 | 27.78° C | 85% | 1009.3 hPa | 0 mm | 0.45 m/s, 209° | 0 W/m² | - |
| 1788355682 | 27.78° C | 85% | 1009.3 hPa | 0 mm | 0 m/s | 0 W/m² | - |
| 1788355621 | 27.78° C | 85% | 1009.1 hPa | 0 mm | 0.89 m/s, 215° | 0 W/m² | - |
| 1788355560 | 27.78° C | 85% | 1009.1 hPa | 0 mm | 1.34 m/s, 267° | 0 W/m² | - |
| 1788355499 | 27.78° C | 85% | 1009.1 hPa | 0 mm | 0.45 m/s, 221° | 0 W/m² | - |
| 1788355438 | 27.78° C | 85% | 1009 hPa | 0 mm | 0.45 m/s, 223° | 0 W/m² | - |
| 1788355377 | 27.78° C | 85% | 1009.1 hPa | 0 mm | 0.45 m/s, 242° | 0 W/m² | - |
| 1788355316 | 27.78° C | 85% | 1009.3 hPa | 0 mm | 1.34 m/s, 194° | 0 W/m² | - |
| 1788355255 | 27.78° C | 85% | 1009.1 hPa | 0 mm | 0.89 m/s, 255° | 0 W/m² | - |
| 1788355194 | 27.78° C | 85% | 1009.1 hPa | 0 mm | 0.45 m/s, 234° | 0 W/m² | - |
| 1788355133 | 27.78° C | 85% | 1008.9 hPa | 0 mm | 1.34 m/s, 234° | 0 W/m² | - |
| 1788355073 | 27.78° C | 85% | 1008.9 hPa | 0 mm | 1.34 m/s, 213° | 0 W/m² | - |
| 1788355011 | 27.78° C | 85% | 1008.9 hPa | 0 mm | 0.45 m/s, 231° | 0 W/m² | - |
| 1788354950 | 27.78° C | 85% | 1009 hPa | 0 mm | 1.34 m/s, 214° | 0 W/m² | - |
| 1788354889 | 27.78° C | 85% | 1008.7 hPa | 0 mm | 0 m/s | 0 W/m² | - |
| 1788354828 | 27.78° C | 85% | 1008.8 hPa | 0 mm | 0.89 m/s, 309° | 0 W/m² | - |
| 1788354767 | 27.78° C | 85% | 1008.7 hPa | 0 mm | 0.89 m/s, 201° | 0 W/m² | - |
| 1788354706 | 27.78° C | 85% | 1008.9 hPa | 0 mm | 0.45 m/s, 244° | 0 W/m² | - |
| 1788354645 | 28.33° C | 85% | 1008.8 hPa | 0 mm | 0 m/s | 0 W/m² | - |
| 1788354584 | 28.33° C | 85% | 1008.9 hPa | 0 mm | 1.79 m/s, 196° | 0 W/m² | - |
* Rain latest hour (hover to see other rain measurements)
** Current wind speed in m/s (hover to see current wind gust speed)